Albany, NY

5:19 AM EDT on September 16, 2019 (GMT -0400)
Albany International

Weather History for KALB - August, 2019

Change the Weather History Date:

Sunday, August 18, 2019

  Actual Average Record
Temperature  
Mean Temperature 77 °F 70 °F  
Max Temperature 87 °F 80 °F 95 °F (1913)
Min Temperature 67 °F 60 °F 40 °F (1981)
Degree Days  
Heating Degree Days 0 1  
Month to date heating degree days 0 1  
Since 1 June heating degree days 27 58  
Since 1 July heating degree days 0 6  
Cooling Degree Days 12 6  
Month to date cooling degree days 148 117  
Year to date cooling degree days 654 483  
Since 1 June cooling degree days 632 453  
Growing Degree Days 26 (Base 50)    
Moisture  
Dew Point 67 °F    
Average Humidity 77    
Maximum Humidity 93    
Minimum Humidity 61    
Precipitation  
Precipitation 0.38 in 0.11 in 1.74 in (1875)
Month to date precipitation 3.10 2.14  
Year to date precipitation 27.96 24.83  
Sea Level Pressure  
Sea Level Pressure 29.98 in    
Wind  
Wind Speed 4 mph (South)    
Max Wind Speed 32 mph    
Max Gust Speed 42 mph    
Visibility 6 miles    
Events Fog , Rain , Thunderstorm    
T = Trace of Precipitation, MM = Missing Value Source: NWS Daily Summary

Daily Weather History Graph

Daily Weather History Graph

Search for Another Location

Airport or City:

Astronomy

Aug. 18, 2019 Rise Set
Actual Time 6:04 AM EDT 7:52 PM EDT
Civil Twilight 5:34 AM EDT 8:22 PM EDT
Nautical Twilight 4:57 AM EDT 8:59 PM EDT
Astronomical Twilight 4:17 AM EDT 9:39 PM EDT
Moon 9:42 PM EDT (8/18) 8:50 AM EDT (8/18)
Length of Visible Light 14h 48m
Length of Day
13h 48m
Waning Gibbous, 91% of the Moon is Illuminated
Aug 18
Waning Gibbous
Aug 23
Last Quarter
Aug 30
New
Sep 5
First Quarter
Sep 14
Full

Hourly Weather History & Observations

Time (EDT) Temp. Heat Index Dew Point Humidity Pressure Visibility Wind Dir Wind Speed Gust Speed Precip Events Conditions
12:51 AM 68.0 °F - 64.9 °F 90% 30.01 in 10.0 mi SSE 3.5 mph - N/A Fog Overcast
1:15 AM 68.0 °F - 64.0 °F 87% 30.01 in 10.0 mi South 4.6 mph - N/A   Overcast
1:51 AM 68.0 °F - 64.9 °F 90% 30.01 in 10.0 mi South 3.5 mph - N/A Fog Overcast
2:45 AM 66.2 °F - 64.4 °F 94% 30.00 in 1.0 mi SSW 4.6 mph - N/A   Overcast
2:51 AM 66.9 °F - 64.9 °F 93% 30.00 in 1.0 mi SSW 4.6 mph - N/A   Overcast
3:51 AM 66.9 °F - 64.9 °F 93% 30.00 in 1.0 mi SSW 4.6 mph - N/A   Overcast
4:51 AM 66.9 °F - 64.9 °F 93% 30.00 in 1.0 mi SSW 5.8 mph - N/A   Overcast
5:51 AM 68.0 °F - 64.9 °F 90% 30.00 in 1.0 mi Calm Calm - N/A   Overcast
6:21 AM 66.9 °F - 64.9 °F 93% 30.01 in 0.5 mi SSW 4.6 mph - N/A Fog Fog
6:51 AM 66.9 °F - 64.9 °F 93% 30.02 in 0.5 mi Calm Calm - N/A Fog Fog
6:56 AM 66.9 °F - 64.9 °F 93% 30.02 in 0.5 mi Calm Calm - N/A Fog Fog
7:35 AM 68.0 °F - 64.9 °F 90% 30.03 in 1.0 mi SSE 3.5 mph - N/A   Overcast
7:51 AM 68.0 °F - 64.9 °F 90% 30.03 in 1.0 mi SSE 4.6 mph - N/A   Overcast
8:10 AM 69.1 °F - 66.0 °F 90% 30.04 in 2.0 mi SE 3.5 mph - N/A   Overcast
8:51 AM 69.1 °F - 66.0 °F 90% 30.04 in 2.0 mi Calm Calm - N/A   Overcast
9:51 AM 70.0 °F - 66.0 °F 87% 30.05 in 3.0 mi ENE 3.5 mph - N/A   Overcast
10:51 AM 71.1 °F - 66.0 °F 84% 30.05 in 3.0 mi Calm Calm - N/A   Overcast
11:51 AM 73.0 °F - 66.0 °F 79% 30.02 in 10.0 mi Calm Calm - N/A   Overcast
12:51 PM 77.0 °F - 69.1 °F 76% 30.01 in 10.0 mi SSE 4.6 mph - N/A   Mostly Cloudy
1:16 PM 79.0 °F - 68.0 °F 69% 30.00 in 10.0 mi Variable 3.5 mph - N/A   Mostly Cloudy
1:51 PM 81.0 °F 83.8 °F 68.0 °F 65% 30.00 in 10.0 mi West 3.5 mph - N/A   Scattered Clouds
2:51 PM 82.9 °F 86.5 °F 69.1 °F 63% 29.97 in 10.0 mi SE 5.8 mph - N/A   Mostly Cloudy
3:51 PM 84.9 °F 89.4 °F 70.0 °F 61% 29.96 in 10.0 mi SSE 5.8 mph - N/A   Mostly Cloudy
4:51 PM 86.0 °F 91.5 °F 71.1 °F 61% 29.94 in 10.0 mi South 8.1 mph - N/A   Mostly Cloudy
5:51 PM 84.9 °F 90.7 °F 72.0 °F 65% 29.91 in 10.0 mi ESE 5.8 mph - N/A   Mostly Cloudy
6:35 PM 84.9 °F 90.7 °F 72.0 °F 65% 29.93 in 10.0 mi Calm Calm - N/A Thunderstorm Thunderstorm
6:51 PM 84.0 °F 90.2 °F 73.0 °F 69% 29.93 in 10.0 mi North 6.9 mph - N/A Thunderstorm Thunderstorm
7:29 PM 72.0 °F - 66.0 °F 81% 29.95 in 2.0 mi WNW 29.9 mph 40.3 mph 0.00 in Rain , Thunderstorm Thunderstorms and Rain
7:35 PM 71.1 °F - 64.9 °F 81% 29.94 in 0.8 mi WNW 19.6 mph 40.3 mph 0.04 in Rain , Thunderstorm Heavy Thunderstorms and Rain
7:46 PM 73.4 °F - 64.4 °F 73% 29.90 in 1.0 mi West 10.4 mph 42.6 mph 0.35 in Rain , Thunderstorm Thunderstorms and Rain
7:51 PM 73.0 °F - 66.0 °F 79% 29.92 in 2.5 mi SSW 12.7 mph 28.8 mph 0.36 in Rain , Thunderstorm Light Thunderstorms and Rain
8:06 PM 73.9 °F - 66.9 °F 79% 29.93 in 5.0 mi South 11.5 mph 20.7 mph 0.00 in Rain , Thunderstorm Light Thunderstorms and Rain
8:51 PM 73.0 °F - 69.1 °F 87% 29.96 in 10.0 mi Calm Calm - 0.02 in Rain , Thunderstorm Light Thunderstorms and Rain
9:40 PM 73.0 °F - 69.1 °F 87% 29.99 in 10.0 mi South 4.6 mph - 0.00 in   Mostly Cloudy
9:51 PM 73.0 °F - 69.1 °F 87% 29.98 in 10.0 mi South 8.1 mph - 0.00 in   Mostly Cloudy
10:51 PM 71.1 °F - 66.9 °F 87% 29.95 in 10.0 mi South 8.1 mph - N/A   Mostly Cloudy
11:06 PM 71.1 °F - 66.9 °F 87% 29.94 in 10.0 mi South 8.1 mph - N/A   Mostly Cloudy
11:51 PM 70.0 °F - 66.9 °F 90% 29.92 in 10.0 mi SSE 5.8 mph - N/A   Mostly Cloudy